Location: Moscow
(55.7500°N, 37.5830°E)
Time: 21:42:25
(UTC+03:00)

A-11 Canister half - Pass Details

Date: 03 December 2021
Orbit: 1516 x 1684 km, 47.2° (Epoch: 16 January)

Event Time Altitude Azimuth Distance (km) Brightness Sun altitude
Rises 10:43:16 0° 259° (W) 4,832 11.5 9.5°
Reaches altitude 10° 10:46:26 10° 255° (WSW) 3,867 11.1 9.6°
Maximum altitude 10:55:55 53° 182° (S) 1,975 10.4 10.1°
Drops below altitude 10° 11:05:38 10° 110° (ESE) 3,946 11.8 10.5°
Sets 11:08:54 0° 106° (ESE) 4,936 12.1 10.7°
